2022-047AG (52424 NORAD) Tracking and Keplerian Element Data

This shows tracking and keplerian element data for the satellite.

Feedback or suggestion? Click here.




ElementValue
Catalog52424
Name2022-047AG
Epoch Orbit812
Epoch Day166.98503845
Epoch Year2022
RAAN251.8667
Inclination97.4546
Eccentricity0.0009048
Argument of Perigee191.6306
Mean Anonmoly168.4717
Mean Motion15.12458244
Decay Rate9.854E-05
L11 52424U 22047AG 22166.98503845 .00009854 00000+0 56947-3 0 9990
L22 52424 97.4546 251.8667 0009048 191.6306 168.4717 15.12458244 8127

Live tracking and technical data element details for 2022-047AG (NORAD 52424). 2022-047AG can be tracked NOW for your location showing map with azimuth and elevation plus other details from your city location.

Track the satellite on the map from your city or location and see movement details for azimuth, elevation, latitude, longitude, range, height, and movement on the map or in text.







IsCatalogInMostPopularTable: catalog: 52424, numindb: 4
Update: records affected: 1



GetName: 52424 2022-047AG

Hit Count: updated at: Mon, 27 Jun 2022 04:44:33 GMT